Flag for Switzerland Weather past 2 weeks in Zürich, Zurich, Switzerland

Now
84 °F

Passing clouds.


Feels Like: 83 °F
Forecast: 58 / 87 °F
Wind: 7 mph from Southwest

Location: Zurich Town / Ville.

Current Time: Aug 28, 2015 at 3:35:31 PM

Latest Report: Aug 28, 2015 at 2:00 PM


Visibility: N/A

Pressure: 30.01 "Hg

Humidity: 39%

Dew point: 56 °F

Location of ZürichLocation

Historic Weather in Zürich — Graph

°F

Zürich temperature yesterday

Maximum temperature yesterday: 83 °F (at 6:00 PM)
Minimum temperature yesterday: 62 °F (at 6:00 AM)
Average temperature yesterday: 72 °F

Past Weeks' High & Low Weather Summary

 TemperatureHumidityPressure
High90 °F (Aug 13, 5:00 PM)98% (Aug 16, 4:00 AM)30.26 "Hg (Aug 16, 4:00 AM)
Low52 °F (Aug 20, 7:00 AM)34% (Aug 13, 5:00 PM)29.70 "Hg (Aug 24, 2:00 PM)
Average64 °F75%29.98 "Hg
* Reported Aug 13 2:00 PM — Aug 28 2:00 PM, Zürich, Weather by CustomWeather, © 2015

Note: Actual official high and low records may vary slightly from our data, if they occured in-between our weather recording intervals... More about our weather records

Advertising

Zürich weather history for previous 24 hours

 ConditionsComfort  
Time TempWeatherWind HumidityBarometerVisibility
2:00 PM
Fri, Aug 28
84 °FPassing clouds.7 mph39%30.01 "HgN/A
1:00 PM82 °FWarm.6 mph42%30.02 "HgN/A
12:00 PM79 °FWarm.5 mph48%30.03 "HgN/A
11:00 AM76 °FMild.3 mph53%30.04 "HgN/A
10:00 AM73 °FMild.3 mph62%30.04 "HgN/A
9:00 AM70 °FMild.1 mph67%30.04 "HgN/A
8:00 AM67 °FMild.1 mph76%30.04 "HgN/A
7:00 AM66 °FMild.1 mph76%30.02 "HgN/A
4:00 AM69 °FMild.2 mph68%29.98 "HgN/A
3:00 AM72 °FMild.5 mph59%29.94 "HgN/A
2:00 AM72 °FMild.3 mph59%29.94 "HgN/A
1:00 AM74 °FMild.6 mph55%29.93 "HgN/A
11:00 PM
Thu, Aug 27
72 °FMild.1 mph70%29.91 "HgN/A
10:00 PM72 °FMild.1 mph65%29.90 "HgN/A
9:00 PM75 °FMild.2 mph58%29.87 "HgN/A
8:00 PM76 °FMild.3 mph58%29.85 "HgN/A
7:00 PM80 °FWarm.3 mph47%29.84 "HgN/A
6:00 PM83 °FPleasantly warm.3 mph39%29.83 "HgN/A
5:00 PM83 °FWarm.3 mph43%29.84 "HgN/A
4:00 PM83 °FWarm.6 mph40%29.85 "HgN/A
3:00 PM83 °FPleasantly warm.3 mph40%29.85 "HgN/A
Weather by CustomWeather, © 2015

See weather overviewHow to use our weather pages